770  
ASUS46 KLOX 182213  
RWRCA  
 
SOUTHERN CALIFORNIA WEATHER ROUNDUP  
NATIONAL WEATHER SERVICE OXNARD CALIFORNIA  
300 PM PDT SAT AUG 18 2018  
 
NOTE: "FAIR" INDICATES FEW OR NO CLOUDS BELOW 12,000 FEET WITH NO  
SIGNIFICANT WEATHER AND/OR S TO VISIBILITY
.  
 
- STATIONS PRECEEDED BY AN ASTERISK (*) ARE NOT NWS OR FAA  
STATIONS AND ARE NOT SUBJECT TO NWS AND FAA QUALITY CONTROL.
 
 
CAZ041-042-087-182300-  
LA AND ORANGE COUNTY COASTAL AREAS  
 
 
CITY SKY/WX TMP DP RH WIND PRES REMARKS
 
L.A. DOWNTOWN SUNNY 84 67 56 CALM 29.98F  
L.A. AIRPORT MOSUNNY 78 66 66 W15 30.00F  
LONG BEACH SUNNY 82 66 58 S10 29.98F  
 
CITY SKY/WX TMP DP RH WIND PRES REMARKS
 
AVALON N/A 73 N/A N/A MISG N/A  
FULLERTON SUNNY 88 64 44 S7 29.97F  
*GETTY CENTER N/A 81 64 57 SW10 N/A  
HAWTHORNE SUNNY 79 66 64 W10 29.99F  
*LEO CARRILLO N/A 77 67 70 SW8 N/A  
*LOS ALAMITOS SUNNY 81 66 59 S12 29.98F  
*REDONDO BEACH N/A 77 65 66 W3 29.98F  
SANTA ANA MOSUNNY 81 65 58 SW9 29.99F  
STA MONICA APT SUNNY 79 66 64 SW9 30.00F  
TORRANCE SUNNY 82 66 57 W9 29.99F  
*UCLA N/A 77 64 65 SW8 29.97F  
 

 
 
CAZ547-548-048-182300-  
LA COUNTY VALLEYS AND INLAND EMPIRE  
 
 
CITY SKY/WX TMP DP RH WIND PRES REMARKS
 
BURBANK SUNNY 88 65 46 S10 29.98F HX 90  
VAN NUYS SUNNY 93 61 34 E8 29.98F HX 93  
 
CITY SKY/WX TMP DP RH WIND PRES REMARKS
 
CORONA AIRPORT CLEAR 92 66 42 W18 29.97F HX 94  
*CHATSWORTH N/A 92 64 38 CALM 29.92F HX 93  
CHINO MOSUNNY 95 61 32 W13 29.99F HX 95  
*CLAREMONT N/A 88 61 40 SW7 N/A  
MARCH AFB SUNNY 93 60 33 NW9 30.01F HX 92  
*NORTHRIDGE N/A 93 55 27 S5 N/A HX 91  
ONTARIO MOSUNNY 93 62 35 W10G16 29.99F HX 93  
*PASADENA N/A 91 66 43 E3 N/A HX 94  
POMONA SUNNY 88 63 42 W9 30.03F  
RIVERSIDE SUNNY 93 60 33 NW8 29.98F HX 93  
SAN BERNARDINO MOSUNNY 97 55 24 W9 29.99F HAZE HX 95  
*SAN RAFAEL HI N/A 90 64 41 SW7 N/A HX 91  
*SAUGUS N/A 92 62 36 SW7G18 N/A HX 92  
*WHITEMAN AP SUNNY 88 63 42 E6 30.03F  
*WOODLAND HILL N/A 95 63 34 E2 N/A HX 96  
 

 
 
CAZ054-055-182300-  
LA AND SAN BERNARDINO COUNTY MOUNTAINS  
 
 
CITY SKY/WX TMP DP RH WIND PRES REMARKS
 
*ACTON N/A 97 55 24 W10 N/A HX 95  
*BIG BEAR AIRP CLOUDY 77 45 31 NE5 30.36F  
*BIG PINES N/A 84 43 23 SW2 N/A  
*CHILAO N/A 89 51 26 SW8 N/A  
SANDBERG SUNNY 88 48 25 N21G30 30.23F  
*WARM SPRINGS N/A 92 59 32 SE2 N/A HX 91  
 

 
 
CAZ028-029-059-060-099-182300-  
ANTELOPE VALLEY AND SURROUNDING AREAS  
 
 
CITY SKY/WX TMP DP RH WIND PRES REMARKS
 
LANCASTER SUNNY 102 44 14 W21G28 30.01F HX 98  
PALMDALE SUNNY 100 51 19 W16G23 30.03F HX 97  
*POPPY PARK N/A 99 47 16 W13G28 N/A HX 95  
 
CITY SKY/WX TMP DP RH WIND PRES REMARKS
 
29 PALMS SUNNY 103 48 15 MISG 30.02F HX 99  
BARSTOW/DAGGET SUNNY 105 48 14 VRB6G18 29.95F HX 101  
BISHOP SUNNY 100 37 11 VRB6 30.09F HX 95  
CHINA LAKE SUNNY 107 43 11 NE6 29.96F HX 102  
EDWARDS AFB MOSUNNY 103 38 11 W7G18 29.97F HX 97  
MOJAVE SUNNY 99 46 16 NW20 30.04F HX 95  
NEEDLES SUNNY 111 58 17 VRB5 29.84F HX 111  
VICTORVILLE SUNNY N/A N/A N/A W7 30.05F  
 

 
 
CAZ039-040-182300-  
VENTURA AND SANTA BARBARA COUNTY COAST  
 
 
CITY SKY/WX TMP DP RH WIND PRES REMARKS
 
CAMARILLO SUNNY 82 65 56 W12 29.99F  
NWS OXNARD N/A 80 65 59 S2 29.98F  
OXNARD AIRPORT MOSUNNY 76 66 71 W13 30.00F  
*POINT MUGU MOSUNNY 77 66 68 W10 30.00F  
SBA APT/GOLETA MOSUNNY 74 65 73 W13 30.00F  
*SANTA BARBARA N/A 81 64 57 NE2 30.07F  
*VENTURA N/A 73 66 78 S9G18 N/A  
 

 
 
CAZ044-045-182300-  
VENTURA COUNTY VALLEYS  
 
 
CITY SKY/WX TMP DP RH WIND PRES REMARKS
 
*SIMI VALLEY N/A 87 68 53 SW6 29.91F HX 91  
*WESTLAKE VILL N/A 87 68 52 CALM 29.94F HX 90  
*OJAI N/A 92 69 45 W3 29.89F HX 97  
*FILLMORE N/A 91 70 50 SW3 29.99F HX 96  
 

 
 
CAZ053-182300-  
VENTURA COUNTY MOUNTAINS  
 
 
CITY SKY/WX TMP DP RH WIND PRES REMARKS
 
*LOCKWOOD VLY N/A 86 45 23 MISG N/A  
*FRAZIER MTN N/A 70 39 33 NW6 29.97F  
*ROSE VALLEY N/A 86 55 35 W13G21 N/A  
 

 
 
CAZ034-035-036-182300-  
CENTRAL COAST AND SANTA YNEZ VALLEY  
 
 
CITY SKY/WX TMP DP RH WIND PRES REMARKS
 
SAN LUIS OBISP SUNNY 77 58 51 NW14 30.03F  
SANTA MARIA SUNNY 75 60 59 NW10 30.05F  
 
CITY SKY/WX TMP DP RH WIND PRES REMARKS
 
*CAL POLY SLO N/A 75 63 64 W9 N/A  
*LOMPOC SUNNY 70 59 68 W14 30.04F  
*PISMO BEACH N/A 63 59 88 W14 30.04F  
*SANTA YNEZ FAIR 88 61 40 W12 30.01F  
 

 
 
CAZ037-038-051-182300-  
SAN LUIS OBISPO COUNTY INTERIOR AND CUYAMA VALLEY  
 
 
CITY SKY/WX TMP DP RH WIND PRES REMARKS
 
PASO ROBLES SUNNY 97 58 27 S17 29.97F HX 96  
 

 
 
CAZ032-033-061-182300-  
SOUTHERN DESERTS  
 
 
CITY SKY/WX TMP DP RH WIND PRES REMARKS
 
BLYTHE SUNNY 107 62 23 SE8 29.84F HX 109  
IMPERIAL SUNNY 108 60 21 NW9 29.80F HX 109  
PALM SPRINGS SUNNY 110 57 17 VRB3 29.85F HX 110  
THERMAL SUNNY 112 61 19 VRB6 29.78F HX 114  
 

 
 
ELSEWHERE ACROSS THE WESTERN UNITED STATES AND MEXICO  
 
 
CITY SKY/WX TMP DP RH WIND PRES REMARKS
 
DEATH VALLEY, N/A 119 53 11 SW3 N/A HX 116  
DENVER, CO PTSUNNY 78 50 37 E20G29 30.14F  
GRAND CANYON, PTSUNNY 81 47 30 W10G22 30.30F  
HONOLULU, HI PTSUNNY 88 73 62 NE15G21 29.98F HX 96  
KAHULUI, MAUI PTSUNNY 88 75 66 NE18G30 29.95F HX 97  
LAKE TAHOE, CA SUNNY 82 29 14 MISG 30.35F  
LAS VEGAS, NV MOSUNNY 106 52 16 E6 29.94F HX 103  
MAMMOTH LAKES, FAIR 86 36 16 W18 30.38F  
MEXICO CITY, M CLOUDY 73 43 33 NE12 30.29F  
PHOENIX, AZ MOSUNNY 105 61 23 NW7 29.86F HX 106  
PORTLAND, OR SUNNY 81 52 36 W3 30.12F  
RENO, NV MOSUNNY 94 29 10 VRB5 30.18F  
SALT LAKE CITY MOSUNNY 85 43 22 W14 30.15F  
SAN DIEGO, CA MOSUNNY 81 67 62 NW10 30.02F  
SAN FRANCISCO, MOSUNNY 70 54 56 NW21 30.01F  
SAN JOSE, CA MOSUNNY 85 51 31 NW12 30.00F  
SEATTLE, WA SUNNY 78 52 40 W9 30.16F  
TIJUANA, MEX SUNNY 81 64 57 CALM 30.04  
 

 
 
STATION/POSITION TIME TEMP WIND PRES VSBY WAVE
 
AIR SEA DIR/SP/G HT/PER  
(UTC) (F) (DEG/KT/KT) (MB) (MI) (FT/S)  
WEST SANTA BARBA 2150 71 40/ 16/ 19 1016.5 4/15  
EAST SANTA BARBA 2150 67 71 270/ 12/ 16 1016.8F 2/11  
SANTA MONICA BAY 2200 70 69 320/ 4/ 6 1015.7  
SAN CLEMENTE BAS 2150 71 74 290/ 10/ 12 1016.6F 4/15  
 
CLICK HERE TO GO TO PREVIOUS BULLETINS.

The Nexlab CA Page Main Text Page